Regional Weather Roundup
Issued by NWS Little Rock, AR

Home | Current Version | Previous Version | Text Only | Print | Product List | Glossary Off
Versions: 1 2 3 4 5 6 7 8 9 10 11 12 13 14 15 16 17 18 19 20 21 22 23 24 25 26 27

000
ASUS44 KLZK 241605
RWRLZK

WEATHER ROUNDUP FOR ARKANSAS
NATIONAL WEATHER SERVICE LITTLE ROCK AR
1100 AM CDT WED AUG 24 2016

NOTE: "FAIR" INDICATES FEW OR NO CLOUDS BELOW 12,000 FEET WITH NO
SIGNIFICANT WEATHER AND/OR OBSTRUCTIONS TO VISIBILITY.

ARZ001-003-010-029-241700-
NORTHWEST ARKANSAS

CITY           SKY/WX    TMP DP  RH WIND       PRES   REMARKS
FAYETTEVILLE   MOSUNNY   84  72  67 SW17G25   30.14R HX  89
FORT SMITH     SUNNY     87  68  52 SW12      30.11R HX  90
HARRISON       SUNNY     85  71  63 SW16      30.14S HX  90
BENTONVILLE    SUNNY     84  70  61 SW16G22   30.14R HX  88
ROGERS         MOSUNNY   86  71  60 SW12G22   30.14R HX  91
SILOAM SPGS    SUNNY     88  66  48 SW15G23   30.14R HX  90
HIGHFILL       SUNNY     87  72  60 SW13G25   30.12R HX  93
SPRINGDALE     SUNNY     84  72  65 SW16      30.15R HX  89
$$

ARZ004-005-016-241700-
NORTH CENTRAL ARKANSAS

CITY           SKY/WX    TMP DP  RH WIND       PRES   REMARKS
BATESVILLE     SUNNY     88  75  66 SW7       30.14R HX  97
FLIPPIN        SUNNY     88  70  55 SW9       30.10S HX  92
MTN HOME       SUNNY     85  73  67 SW9       30.12S HX  91
$$

ARZ040-041-241700-
WEST CENTRAL ARKANSAS

CITY           SKY/WX    TMP DP  RH WIND       PRES   REMARKS
MENA           SUNNY     86  72  62 W9        30.16S HX  92
MOUNT IDA      SUNNY     86  70  58 VRB7      30.14R HX  90
$$

ARZ009-017-025-026-028-241700-
NORTHEAST ARKANSAS

CITY           SKY/WX    TMP DP  RH WIND       PRES   REMARKS
CORNING          N/A     86  79  79 SW14      30.13S HX  99
JONESBORO      SUNNY     86  77  74 SW9       30.14S HX  97
NEWPORT        SUNNY     87  77  72 S10       30.14S HX  99
WALNUT RIDGE   SUNNY     88  75  66 SW13      30.13S HX  97
BLYTHEVILLE    SUNNY     88  76  67 SW9       30.16S HX  99
NW BLYTHEVILLE MOSUNNY   90  77  66 SW13G20   30.15S HX 102
$$

ARZ022-023-033-042-044-241700-
CENTRAL ARKANSAS

CITY           SKY/WX    TMP DP  RH WIND       PRES   REMARKS
LITTLE ROCK    MOSUNNY   89  76  65 SW8       30.15S HX 100
N LITTLE ROCK    N/A     85  77  75 SW6       30.12R HX  96
SEARCY         SUNNY     88  78  72 S9        30.15S HX 101
HOT SPRINGS    MOSUNNY   86  75  69 W6        30.16R HX  95
RUSSELLVILLE   SUNNY     86  75  69 SW7       30.13R HX  95
$$

ARZ036-241700-
EAST ARKANSAS

CITY           SKY/WX    TMP DP  RH WIND       PRES   REMARKS
WEST MEMPHIS   SUNNY     86  76  71 S9        30.16S HX  96
$$

ARZ050-053-066-070-073-241700-
SOUTHWEST ARKANSAS

CITY           SKY/WX    TMP DP  RH WIND       PRES   REMARKS
ARKADELPHIA    FAIR      86  77  74 SW10      30.15R HX  97
CAMDEN         SUNNY     88  73  62 W5        30.16R HX  96
TEXARKANA      SUNNY     87  73  62 SW10      30.15S HX  94
EL DORADO      SUNNY     87  74  64 SE7       30.16S HX  95
DE QUEEN       SUNNY     84  75  74 SW6       30.13R HX  92
$$

ARZ056-057-069-241700-
SOUTHEAST ARKANSAS

CITY           SKY/WX    TMP DP  RH WIND       PRES   REMARKS
PINE BLUFF     SUNNY     87  76  69 S8        30.16R HX  97
STUTTGART      SUNNY     90  73  58 SW8       30.16S HX  98
MONTICELLO     SUNNY     91  75  59 SW6       30.16S HX 101

$$






USA.gov is the U.S. government's official web portal to all federal, state and local government web resources and services.